Tracking 22081 objects as of 4-Dec-2020
HD Live streaming from Space Station
objects crossing your sky now

SL-12 R/B(2)

Track SL-12 R/B(2) now!


NORAD ID: 11568
Int'l Code: 1975-123F
Perigee: 35,665.4 km
Apogee: 35,792.0 km
Inclination: 7.6 °
Period: 1,432.8 minutes
Semi major axis: 42099 km
RCS: 3.1622 m2 (large)
Launch date: December 22, 1975
Source: Commonwealth of Independent States (former USSR) (CIS)
Launch site: TYURATAM MISSILE AND SPACE COMPLEX (TTMTR)

Note: This is a ROCKET BODY
aabbcc
Your satellite tracking list
Your tracking list is empty




NASA's NSSDC Master Catalog

Two Line Element Set (TLE):
1 11568U 75123F   20338.53877811  .00000149  00000-0  00000-0 0  9999
2 11568   7.6405 295.2522 0015036 150.2988 221.4358  1.00504146101682
Source of the keplerian elements: AFSPC